EW4092 Weather Reports


time (UTC)temp
C
wind
direction
speed
KPH
gust
KPH
rain 1hr
cm
rain 24hr
cm
rain mn
cm
humidity
%
barometer
mb
20260903060045 13 246 0.0 3.2 0.05 0.18 0.18 89 1007.2
20260903054548 13 245 0.0 4.8 0.05 0.18 0.18 90 1007.2
20260903053102 13 287 1.6 12.9 0.08 0.18 0.18 90 1007.4
20260903051543 13 284 1.6 6.4 0.08 0.15 0.15 89 1007.3
20260903050143 13 287 3.2 6.4 0.05 0.13 0.13 89 1007.4
20260903044551 13 275 4.8 12.9 0.08 0.13 0.13 88 1007.1
20260903043040 13 262 3.2 9.7 0.05 0.10 0.10 87 1007.2
20260903041539 14 277 8.0 14.5 0.03 0.08 0.08 85 1007.2
20260903040039 14 295 3.2 11.3 0.00 0.05 0.05 82 1007.3
20260903034537 14 267 1.6 8.0 0.00 0.05 0.05 82 1007.0
20260903033037 14 304 1.6 8.0 0.00 0.05 0.05 82 1006.8
20260903031637 14 271 1.6 11.3 0.00 0.05 0.05 81 1006.7
20260903030041 15 355 0.0 4.8 0.00 0.05 0.05 81 1006.6
20260903024542 15 270 0.0 4.8 0.00 0.05 0.05 80 1006.6
20260903023035 15 249 0.0 9.7 0.00 0.05 0.05 79 1006.7
20260903021536 15 255 0.0 1.6 0.00 0.05 0.05 79 1006.7
20260903020034 15 256 1.6 8.0 0.00 0.05 0.05 79 1006.7
20260903014533 15 283 0.0 4.8 0.00 0.05 0.05 78 1006.7
20260903013132 15 269 1.6 8.0 0.00 0.05 0.05 77 1006.8
20260903011540 15 342 0.0 4.8 0.00 0.05 0.05 75 1006.7
20260903010031 15 263 0.0 6.4 0.00 0.05 0.05 74 1006.8
20260903004532 16 222 0.0 4.8 0.00 0.05 0.05 74 1006.8
20260903003030 16 287 1.6 11.3 0.00 0.05 0.05 68 1006.9
20260903001529 16 36 4.8 12.9 0.00 0.05 0.05 67 1006.9
20260903000028 16 104 4.8 12.9 0.00 0.05 0.05 67 1007.0
20260902234627 16 53 4.8 16.1 0.00 0.05 0.05 67 1007.1
20260902233035 16 69 4.8 11.3 0.00 0.05 0.05 71 1007.0
20260902231527 16 49 3.2 14.5 0.00 0.05 0.05 70 1006.9
20260902230026 16 94 3.2 14.5 0.03 0.05 0.05 70 1007.0
20260902224525 16 58 9.7 19.3 0.05 0.05 0.05 66 1006.8
20260902223025 16 81 9.7 27.4 0.05 0.05 0.05 66 1006.6
20260902221524 16 82 6.4 19.3 0.05 0.05 0.05 71 1006.6
20260902220125 16 60 8.0 27.4 0.03 0.03 0.03 70 1006.7
20260902214521 18 327 12.9 35.4 0.00 0.00 0.00 56 1006.6
20260902213021 19 89 14.5 27.4 0.00 0.00 0.00 52 1006.2
20260902211520 20 57 12.9 25.7 0.00 0.00 0.00 50 1005.9
20260902210020 22 32 4.8 14.5 0.00 0.00 0.00 40 1005.3
20260902204535 21 314 3.2 9.7 0.00 0.00 0.00 41 1005.1
20260902203021 21 250 1.6 14.5 0.00 0.00 0.00 41 1005.4
20260902201635 22 270 6.4 16.1 0.00 0.00 0.00 42 1005.4
20260902200016 22 11 3.2 16.1 0.00 0.00 0.00 39 1005.5
20260902194514 22 32 11.3 22.5 0.00 0.00 0.00 37 1005.6
20260902193010 22 15 8.0 17.7 0.00 0.00 0.00 38 1005.8
20260902191515 22 42 9.7 20.9 0.00 0.00 0.00 38 1006.0
20260902190007 22 56 12.9 29.0 0.00 0.00 0.00 38 1006.2
20260902184505 22 326 14.5 27.4 0.00 0.00 0.00 37 1006.1
20260902183103 22 101 6.4 14.5 0.00 0.00 0.00 40 1006.2
20260902181614 21 126 1.6 12.9 0.00 0.00 0.00 42 1006.5
20260902180100 20 270 1.6 9.7 0.00 0.00 0.00 47 1006.5
20260902174551 19 271 6.4 12.9 0.00 0.00 0.00 51 1006.7
20260902173051 19 287 3.2 8.0 0.00 0.00 0.00 51 1006.7
20260902171558 18 248 0.0 8.0 0.00 0.00 0.00 58 1006.8
20260902170047 18 256 3.2 8.0 0.00 0.00 0.00 59 1006.9
20260902164555 18 215 1.6 8.0 0.00 0.00 0.00 59 1006.9
20260902163047 17 233 3.2 6.4 0.00 0.00 0.00 60 1006.9
20260902161548 17 227 4.8 8.0 0.00 0.00 0.00 62 1007.1
20260902160042 16 51 0.0 3.2 0.00 0.00 0.00 65 1007.3
20260902154557 16 53 0.0 4.8 0.00 0.00 0.00 68 1007.5
20260902153042 15 82 1.6 6.4 0.00 0.00 0.00 73 1007.6
20260902151540 15 79 4.8 9.7 0.00 0.00 0.00 76 1007.6
20260902150038 15 89 3.2 8.0 0.00 0.00 0.00 71 1007.6
20260902144540 15 207 0.0 3.2 0.00 0.00 0.00 74 1007.5
20260902143037 14 191 0.0 3.2 0.00 0.00 0.00 76 1007.8
20260902141536 13 88 0.0 0.0 0.00 0.00 0.00 79 1007.7
20260902140039 13 88 0.0 1.6 0.00 0.00 0.00 79 1007.8
20260902134535 12 88 0.0 0.0 0.00 0.00 0.00 80 1007.9
20260902133034 12 88 0.0 0.0 0.00 0.00 0.00 81 1007.7
20260902131534 12 87 0.0 3.2 0.00 0.00 0.00 81 1007.7
20260902130033 12 50 0.0 0.0 0.00 0.00 0.00 81 1007.7
20260902124534 12 50 0.0 1.6 0.00 0.00 0.00 80 1007.8
20260902123028 13 63 0.0 1.6 0.00 0.00 0.00 79 1007.7
20260902121527 13 63 0.0 1.6 0.00 0.00 0.00 78 1007.8
20260902120027 13 64 0.0 1.6 0.00 0.00 0.00 77 1008.0
20260902114523 13 352 1.6 3.2 0.00 0.00 0.00 76 1007.8
20260902113019 14 68 0.0 3.2 0.00 0.00 0.00 74 1007.4
20260902111518 15 104 0.0 1.6 0.00 0.00 0.00 73 1007.3
20260902110017 15 104 0.0 1.6 0.00 0.00 0.00 72 1007.3
20260902104517 15 104 1.6 4.8 0.00 0.00 0.00 69 1007.5
20260902103028 15 24 0.0 1.6 0.00 0.00 0.00 67 1007.3
20260902101525 15 340 0.0 3.2 0.00 0.00 0.00 67 1007.1
20260902100015 15 94 0.0 4.8 0.00 0.00 0.00 68 1006.8
20260902094514 15 108 1.6 12.9 0.00 0.00 0.00 68 1006.9
20260902093013 15 169 1.6 9.7 0.00 0.00 0.00 69 1006.5
20260902091510 14 65 0.0 1.6 0.00 0.00 0.00 67 1007.7
20260902090007 16 41 3.2 8.0 0.00 0.00 0.00 61 1007.3
20260902084505 16 163 0.0 4.8 0.00 0.00 0.00 61 1006.8
20260902083003 16 113 0.0 9.7 0.00 0.00 0.00 59 1007.0
20260902081503 16 114 1.6 6.4 0.00 0.00 0.00 57 1007.3
20260902080101 17 150 0.0 6.4 0.00 0.00 0.00 56 1007.1
20260902074600 17 104 0.0 4.8 0.00 0.00 0.00 58 1007.1
20260902073058 17 131 1.6 8.0 0.00 0.00 0.00 59 1007.4
20260902071602 17 158 0.0 6.4 0.00 0.00 0.00 59 1007.6
20260902070050 17 139 0.0 8.0 0.00 0.00 0.00 58 1007.9
20260902064558 18 163 0.0 4.8 0.00 0.00 0.00 58 1007.9
20260902063052 18 118 4.8 9.7 0.00 0.00 0.00 57 1007.8